Tracking 29892 objects as of 21-Nov-2024
HD Live streaming from Space Station
objects crossing your sky now

STARLINK-32405

Track STARLINK-32405 now!
10-day predictions
STARLINK-32405 is classified as:


NORAD ID: 61636
Int'l Code: 2024-191R
Perigee: 450.0 km
Apogee: 452.5 km
Inclination: 43.0 °
Period: 93.5 minutes
Semi major axis: 6822 km
RCS: Unknown
Launch date: October 23, 2024
Source: United States (US)
Launch site: AIR FORCE EASTERN TEST RANGE (AFETR)
Your satellite tracking list
Your tracking list is empty




NASA's NSSDC Master Catalog

Two Line Element Set (TLE):
1 61636U 24191R   24325.91668981  .00050839  00000-0  12175-2 0  9996
2 61636  42.9992 327.8091 0001821 264.2049 130.6629 15.40666971  5645
Source of the keplerian elements: AFSPC